Weather History for North Adams, MA

Change the Weather History Date:

Saturday, December 1, 2012

  Actual Average Record
Temperature  
Mean Temperature 30 °F -  
Max Temperature 36 °F 40 °F 69 °F (2006)
Min Temperature 23 °F 25 °F 12 °F (2007)
Degree Days  
Heating Degree Days 36    
Moisture  
Dew Point 20 °F    
Average Humidity 73    
Maximum Humidity 82    
Minimum Humidity 59    
Precipitation  
Precipitation 0.00 in - - ()
Sea Level Pressure  
Sea Level Pressure 30.52 in    
Wind  
Wind Speed 10 mph (East)    
Max Wind Speed 15 mph    
Max Gust Speed 21 mph    
Visibility 6 miles    
Events Snow    
Averages and records for this station are not official NWS values.
T = Trace of Precipitation, MM = Missing Value Source: NWS Daily Summary

Daily Weather History Graph

Daily Weather History Graph

Search for Another Location

Airport:

Trip Planner

Search our weather history database for the weather conditions in past years. The results will help you decide how hot, cold, wet, or windy it might be!

Date:

Astronomy

Dec. 01, 2012 Rise Set
Actual Time 7:03 AM EST 4:19 PM EST
Civil Twilight 6:32 AM EST 4:51 PM EST
Nautical Twilight 5:56 AM EST 5:26 PM EST
Astronomical Twilight 5:22 AM EST 6:00 PM EST
Moon 7:08 PM EST (12/1) 9:13 AM EST (12/1)
Length of Visible Light 10h 19m
Length of Day
9h 16m
Waning Gibbous, 92% of the Moon is Illuminated
Dec 1
Waning Gibbous
Dec 6
Last Quarter
Dec 13
New
Dec 20
First Quarter
Dec 28
Full

Hourly Weather History & Observations

Time (EST) Temp. Windchill Dew Point Humidity Pressure Visibility Wind Dir Wind Speed Gust Speed Precip Events Conditions
12:36 AM 24.8 °F 14.0 °F 12.2 °F 59% 30.51 in 2.5 mi ESE 11.5 mph - 0.00 in Snow Light Snow
12:42 AM 24.8 °F 14.0 °F 12.2 °F 59% 30.51 in 3.0 mi ESE 11.5 mph - 0.00 in Snow Light Snow
12:52 AM 25.0 °F 13.6 °F 14.0 °F 63% 30.54 in 2.0 mi ESE 12.7 mph - 0.00 in Snow Light Snow
1:10 AM 24.8 °F 14.6 °F 12.2 °F 59% 30.51 in 3.0 mi East 10.4 mph - 0.00 in Snow Light Snow
1:43 AM 24.8 °F 14.6 °F 15.8 °F 69% 30.51 in 1.8 mi East 10.4 mph - 0.00 in Snow Light Snow
1:52 AM 23.0 °F 11.7 °F 16.0 °F 74% 30.55 in 1.8 mi East 11.5 mph - 0.00 in Snow Light Snow
2:02 AM 23.0 °F 12.4 °F 15.8 °F 74% 30.52 in 2.5 mi East 10.4 mph - 0.00 in Snow Light Snow
2:18 AM 23.0 °F 13.1 °F 15.8 °F 74% 30.52 in 1.5 mi East 9.2 mph - 0.00 in Snow Light Snow
2:33 AM 23.0 °F 13.9 °F 17.6 °F 80% 30.52 in 1.2 mi East 8.1 mph - 0.00 in Snow Light Snow
2:42 AM 23.0 °F 13.9 °F 17.6 °F 80% 30.51 in 1.8 mi East 8.1 mph - 0.00 in Snow Light Snow
2:52 AM 23.0 °F 13.1 °F 16.0 °F 74% 30.55 in 1.8 mi East 9.2 mph - 0.00 in Snow Light Snow
2:56 AM 23.0 °F 11.7 °F 15.8 °F 74% 30.51 in 2.0 mi East 11.5 mph 18.4 mph 0.00 in Snow Light Snow
3:08 AM 24.8 °F 14.6 °F 15.8 °F 69% 30.51 in 4.0 mi East 10.4 mph - 0.00 in Snow Light Snow
3:31 AM 24.8 °F 15.3 °F 15.8 °F 69% 30.49 in 10.0 mi East 9.2 mph 19.6 mph 0.00 in   Overcast
3:52 AM 24.1 °F 13.1 °F 15.1 °F 69% 30.52 in 10.0 mi East 11.5 mph 19.6 mph 0.00 in   Overcast
4:52 AM 25.0 °F 15.5 °F 15.1 °F 66% 30.53 in 10.0 mi ENE 9.2 mph - N/A   Overcast
5:52 AM 25.0 °F 14.8 °F 15.1 °F 66% 30.55 in 5.0 mi ENE 10.4 mph - 0.00 in Snow Light Snow
6:03 AM 24.8 °F 15.3 °F 15.8 °F 69% 30.52 in 2.5 mi ENE 9.2 mph - 0.00 in Snow Light Snow
6:19 AM 24.8 °F 16.1 °F 17.6 °F 74% 30.53 in 4.0 mi East 8.1 mph 18.4 mph 0.00 in Snow Light Snow
6:52 AM 25.0 °F 14.8 °F 17.1 °F 72% 30.56 in 3.0 mi East 10.4 mph - 0.00 in Snow Light Snow
7:00 AM 24.8 °F 14.0 °F 17.6 °F 74% 30.53 in 2.0 mi East 11.5 mph 19.6 mph 0.00 in Snow Light Snow
7:16 AM 24.8 °F 14.6 °F 17.6 °F 74% 30.54 in 4.0 mi East 10.4 mph 19.6 mph 0.00 in Snow Light Snow
7:28 AM 24.8 °F 15.3 °F 17.6 °F 74% 30.53 in 1.8 mi East 9.2 mph 18.4 mph 0.00 in Snow Light Snow
7:52 AM 26.1 °F 16.2 °F 17.1 °F 69% 30.57 in 2.5 mi ENE 10.4 mph 19.6 mph 0.00 in Snow Light Snow
8:00 AM 26.6 °F 16.8 °F 17.6 °F 69% 30.55 in 4.0 mi ENE 10.4 mph 19.6 mph 0.00 in Snow Light Snow
8:52 AM 27.0 °F 16.7 °F 17.1 °F 66% 30.58 in 6.0 mi East 11.5 mph - 0.00 in Snow Light Snow
9:03 AM 26.6 °F 17.5 °F 17.6 °F 69% 30.56 in 2.0 mi ENE 9.2 mph 18.4 mph 0.00 in Snow Light Snow
9:13 AM 26.6 °F 17.5 °F 17.6 °F 69% 30.55 in 4.0 mi ENE 9.2 mph 18.4 mph 0.00 in Snow Light Snow
9:52 AM 28.0 °F 18.1 °F 18.0 °F 66% 30.58 in 10.0 mi ENE 11.5 mph - 0.00 in   Overcast
10:52 AM 28.9 °F 19.8 °F 18.0 °F 64% 30.57 in 10.0 mi ENE 10.4 mph 20.7 mph N/A   Overcast
11:52 AM 30.0 °F 20.5 °F 19.9 °F 66% 30.55 in 10.0 mi East 11.5 mph 18.4 mph N/A   Overcast
12:52 PM 30.0 °F 19.1 °F 21.9 °F 72% 30.52 in 3.0 mi ESE 15.0 mph - 0.00 in Snow Light Snow
1:52 PM 30.9 °F 20.7 °F 21.9 °F 69% 30.52 in 10.0 mi ESE 13.8 mph - 0.00 in   Overcast
2:52 PM 30.9 °F 20.7 °F 24.1 °F 76% 30.51 in 10.0 mi East 13.8 mph - N/A   Overcast
3:52 PM 30.9 °F 23.5 °F 24.1 °F 76% 30.53 in 10.0 mi ENE 8.1 mph 19.6 mph N/A   Overcast
4:52 PM 30.9 °F 22.8 °F 25.0 °F 79% 30.52 in 10.0 mi ENE 9.2 mph - N/A   Overcast
5:42 PM 32.0 °F 23.6 °F 26.6 °F 80% 30.49 in 10.0 mi ENE 10.4 mph - N/A   Overcast
5:49 PM 32.0 °F 23.6 °F 26.6 °F 80% 30.49 in 10.0 mi ENE 10.4 mph 17.3 mph N/A   Overcast
5:52 PM 32.0 °F 23.6 °F 26.1 °F 79% 30.52 in 10.0 mi ENE 10.4 mph 17.3 mph N/A   Overcast
6:52 PM 32.0 °F 25.6 °F 27.0 °F 82% 30.51 in 10.0 mi ENE 6.9 mph 18.4 mph N/A   Overcast
7:25 PM 33.8 °F 27.7 °F 26.6 °F 75% 30.48 in 10.0 mi East 6.9 mph - N/A   Overcast
7:52 PM 33.1 °F 27.7 °F 27.0 °F 78% 30.50 in 10.0 mi ENE 5.8 mph - N/A   Overcast
8:08 PM 33.8 °F 28.6 °F 28.4 °F 81% 30.47 in 10.0 mi East 5.8 mph - N/A   Overcast
8:25 PM 33.8 °F 27.7 °F 28.4 °F 81% 30.46 in 10.0 mi ENE 6.9 mph - N/A   Overcast
8:52 PM 34.0 °F 26.6 °F 28.0 °F 79% 30.49 in 10.0 mi East 9.2 mph - N/A   Overcast
9:52 PM 35.1 °F 27.4 °F 30.0 °F 82% 30.47 in 10.0 mi ENE 10.4 mph - N/A   Overcast
10:32 PM 35.6 °F 29.2 °F 30.2 °F 81% 30.43 in 6.0 mi ENE 8.1 mph 17.3 mph N/A   Haze
10:52 PM 36.0 °F 28.0 °F 30.9 °F 82% 30.46 in 10.0 mi East 11.5 mph 18.4 mph N/A   Overcast
11:52 PM 36.0 °F 28.5 °F 30.9 °F 82% 30.45 in 10.0 mi ESE 10.4 mph - N/A   Overcast